Regional Weather Roundup
Issued by NWS Wakefield, VA

Home | Current Version | Previous Version | Text Only | Print | Product List | Glossary Off
Versions: 1 2 3 4 5 6 7 8 9 10 11 12 13 14 15 16 17 18 19 20 21 22 23 24 25 26 27 28 29 30 31 32 33 34 35 36 37 38 39 40 41 42 43 44 45 46 47 48 49 50

099
ASUS41 KAKQ 061115
RWRAKQ

REGIONAL WEATHER ROUNDUP
NATIONAL WEATHER SERVICE WAKEFIELD VA
700 AM EDT FRI MAY 06 2016

Note: "fair" indicates few or no clouds below 12,000 feet with no
significant weather and/or obstructions to visibility. * = Denotes
station may not report precipitation (e.g., rain,snow,etc.),
thunder or fog.

VAZ042-051-052>054-056-061200-
NORTHERN VIRGINIA

CITY           SKY/WX    TMP DP  RH WIND       PRES   REMARKS
WASH NATIONAL  LGT RAIN  53  50  89 N8        29.67R
DULLES         CLOUDY    52  49  89 NW8       29.68R
FORT BELVOIR   LGT RAIN  54  50  87 VRB2      29.67R
QUANTICO       CLOUDY    54  50  86 N10       29.68R
FREDERICKSBRG* DRIZZLE   52  52 100 NW6       29.67R
STAFFORD*      RAIN      51  49  92 NW8       29.71R
WARRENTON      RAIN      52  47  83 NW6       29.68R
CULPEPER*      LGT RAIN  52  51  97 N5        29.70R
MANASSAS*      CLOUDY    52  52 100 N5        29.68R
LEESBURG*      CLOUDY    54  52  94 NW5       29.69R
WINCHESTER     CLOUDY    52  50  93 NW6       29.70R
FRONT ROYAL*   CLOUDY    50  48  93 NW8       29.69R
LURAY*         LGT RAIN  50  50 100 N5        29.70R
$$

VAZ048-049-060>072-079>083-061200-
CENTRAL AND SOUTH CENTRAL VIRGINIA

CITY           SKY/WX    TMP DP  RH WIND       PRES   REMARKS
RICHMOND       RAIN      51  50  96 CALM      29.66R FOG
CHESTERFIELD*  CLOUDY    52  39  62 CALM      29.68R
PETERSBURG*    LGT RAIN  52  52 100 CALM      29.67S
HANOVER        RAIN      51  50  96 CALM      29.68R FOG
TAPPAHANNOCK*  HVY RAIN  52  52 100 CALM      29.66R
QUINTON*       CLOUDY    51  51 100 CALM      29.65S FOG
CHARLOTTSVILLE LGT RAIN  51  49  92 CALM      29.69R
GORDONSVILLE*  CLOUDY    51  50  96 N5        29.69R FOG
ORANGE*        RAIN      52  52 100 SW7       29.70R
LOUISA*        RAIN      54  54 100 N5        29.67R
BUMPASS*       CLOUDY    51  50  97 N3        29.67R
FARMVILLE*     RAIN      52  52 100 N3        29.68R
CREWE*         CLOUDY    50  50 100 CALM      29.67R
FORT PICKETT*  NOT AVBL
CHASE CITY*    CLOUDY    50  49  95 NW3       29.68R
CLARKSVILLE*   CLOUDY    50  50 100 CALM      29.68R
SOUTH HILL*    CLOUDY    50  50  99 NW3       29.73R
LAWRENCEVILLE* CLOUDY    50  50 100 CALM      29.67R
EMPORIA*       LGT RAIN  50  50 100 W5        29.68R
$$

VAZ088>098-061200-
SOUTHEAST VIRGINIA

CITY           SKY/WX    TMP DP  RH WIND       PRES   REMARKS
NORFOLK        RAIN      52  49  89 CALM      29.65R FOG
VIRGINIA BEACH LGT RAIN  54  49  83 CALM      29.64R
NORFOLK NAVAL  LGT RAIN  52  50  93 CALM      29.66R FOG
WEST POINT*    CLOUDY    51  51  98 CALM      29.67R
SALUDA*        CLOUDY    50  50  99 CALM      29.65R
NEWPORT NEWS   RAIN      51  51 100 CALM      29.65R FOG
LANGLEY AFB    LGT RAIN  51  50  96 CALM      29.65R FOG
FORT EUSTIS    RAIN      52  52 100 VRB1      29.63S FOG
WILLIAMSBURG*  MOCLDY    52  52 100 CALM      29.66R
HR EXEC AP*    CLOUDY    52  48  87 CALM      29.67R
FRANKLIN*      RAIN      50  49  96 NW3       29.67R
US460-WAKEFLD  LGT RAIN  50  49  96 CALM      29.66R
$$

VAZ020-022-025-037-045-061200-
WEST CENTRAL AND SOUTHWEST VIRGINIA

CITY           SKY/WX    TMP DP  RH WIND       PRES   REMARKS
STAUNTON*      CLOUDY    51  51  99 N6        29.73R
WAYNESBORO*    CLOUDY    48  47  96 NW3       29.71R
HOT SPRINGS VA FOG       42  42 100 NW12G18   29.71R VSB 1/2
LYNCHBURG      LGT RAIN  50  49  96 CALM      29.71R
DANVILLE       LGT RAIN  50  49  96 W3        29.71R
SOUTH BOSTON*  CLOUDY    51  50  95 NW5       29.70R
MARTINSVILLE   MOCLDY    45  45 100 CALM      29.74R FOG
ROANOKE        MOCLDY    50  46  86 W3        29.73R
BLACKSBURG     CLOUDY    48  46  92 NW5       29.77R
DUBLIN*        MOCLDY    50  46  84 NW10G18   29.77R
MARION*        CLOUDY    47  43  85 W12       29.82R
HILLSVILLE*    CLOUDY    46  44  93 NW12      29.74R
RICHLANDS*     LGT RAIN  44  34  69 NW6       29.82R VSB 1/4
WISE*          CLOUDY    45  43  93 NW9       29.87R
ABINGDON*      CLOUDY    49  44  80 NW6       29.84R
$$

MDZ021>025-VAZ099-100-061200-
SOUTHERN MARYLAND AND THE DELMARVA PENINSULA

CITY           SKY/WX    TMP DP  RH WIND       PRES   REMARKS
PATUXENT RIVER LGT RAIN  51  48  89 NE9       29.64R FOG
BAY BRIDGE APT NOT AVBL
LEONARDTOWN    CLOUDY    50  46  87 CALM      29.66R
DOVER          RAIN      49  49 100 NE9       29.65R FOG
GEORGETOWN     LGT RAIN  48  47  96 NE9       29.64S FOG
EASTON         LGT RAIN N/A N/A N/A E8        29.69R
CAMBRIDGE      CLOUDY    46  46 100 NE6       29.63S
SALISBURY      CLOUDY    48  46  93 NE9       29.63R FOG
OCEAN CITY     LGT RAIN  48  46  93 NE13G21   29.62R
WALLOPS ISLAND RAIN      48  46  93 N7        29.64R FOG
ACCOMACK*      LGT RAIN N/A N/A N/A N3        29.64R
$$

NCZ012>017-030>032-061200-
NORTH CENTRAL AND EASTERN NORTH CAROLINA

CITY           SKY/WX    TMP DP  RH WIND       PRES   REMARKS
ROANOKE RAPIDS DRIZZLE   50  50 100 CALM      29.66R
RALEIGH        LGT RAIN  50  48  93 NW5       29.70R
ELIZABETH CITY CLOUDY    51  50  96 CALM      29.66R
AHOSKIE*       CLOUDY    50  49  95 CALM      29.66R
EDENTON*       CLOUDY    52  52 100 CALM      29.66R
CURRITUCK*     CLOUDY    51  51 100 CALM      29.66R
KILL DEVIL HLS CLOUDY    51  50  97 CALM      29.65R
MANTEO         CLOUDY    52  51  95 CALM      29.66R
CAPE HATTERAS  PTCLDY    50  49  96 E3        29.66R
TARBORO*       RAIN      52  51  97 CALM      29.67R
GOLDSBORO      LGT RAIN  52  52 100 W7        29.66R
WASHINGTON     CLOUDY    51  49  92 S5        29.66R
GREENVILLE     LGT RAIN  52  52 100 CALM      29.69R
NEW BERN       CLOUDY    51  48  89 SW6       29.68R
WILMINGTON     CLOUDY    49  45  86 W9        29.71R
$$

VAZ048-061200-
ELSEWHERE

CITY           SKY/WX    TMP DP  RH WIND       PRES   REMARKS
HARRISBURG PA  CLOUDY    55  44  66 N7        29.68R
BALTIMORE      LGT RAIN  51  49  92 N5        29.66R FOG
ANNAPOLIS      CLOUDY    52  51  97 CALM      29.65R FOG
ANDREWS AFB    LGT RAIN  51  49  92 N10       29.65S
PHILADELPHIA   LGT RAIN  51  46  83 NE14G22   29.66S
HENDERSON NC   RAIN      50  50 100 NW3       29.67R
GREENSBORO     CLOUDY    49  48  97 W3        29.71R
ROCKY MOUNT    LGT RAIN  51  50  96 NW8       29.67R
$$

VAZ100-061200-
MARINE

STATION/POSITION TIME  TEMP    WIND        PRES    WAVE   SWELL
                       AIR SEA DIR/SP/G            HT/PER HT/PER
                 (UTC) (F)     (DEG/KT/KT) (MB)    (FT/S) (FT/S)
BRANDYWINE LGT   1000   49      30/ 15/ 17 1003.7R
CAPE MAY NJ      1000   47 56  360/  2/  6 1003.3R
LEWES DE         1000   49 54   50/ 17/ 18 1003.7R
15NM E FENWICK I 1050   48 51              1001.9S   8/ 8
OCEAN-CITY-INLET 1000   48 54   60/  9/ 17 1001.7R
WACHAPREAGUE VA  1000   48 56   20/  2/  4 1002.9S
THOMAS POINT MD  1100   52 57   60/ 10/ 11 1005.4R
GOOSES REEF MD   1000   53 58   50/ 14/ 16 1004.5R   1/ 3
COVE POINT MD    1000   51      30/ 13/ 17 1003.7R
SOLOMONS ISLAND  1000   51 60   10/  6/ 10   N/A
BISHOPS HEAD MD  1000   51 57   30/  9/ 13 1002.1R
PINEY POINT MD   1000           40/  6/  7   N/A
POTOMAC MD       1000   52 59   50/ 14/ 17 1002.1R   1
CAMBRIDGE MD     1000   51 60   30/ 12/ 14 1002.5R
LEWISETTA VA     1000   53 60   30/  6/  9 1003.1R
RAPPAHANNOCK LGT 1000           20/  8/  9 1003.8S
STINGRAY PT      1000   52 60   80/ 10/ 12 1003.7R   2/ 3
YORK RVR RNG VA  1000   52      90/  5/  6 1002.9R
YORKTOWN VA      1000   52 62  340/  3/  5 1003.3R
JAMESTOWN VA     1000   52 66  340/  4/  6   N/A     0
DOMINION TERM VA 1000   51      10/  3/  4 1003.5R
KIPTOPEKE VA     1000      59   20/  3/  4   N/A
CHES BAY BRIDGE  1000   52 60   20/  4/  6 1003.0R
CAPE HENRY VA    1000   51      40/  6/  9   N/A
CHESAPEAKE LGHT  1000   50     360/  8/  9 1004.0R
WILLOUBY STN VA  1000   52     100/  2/  3 1004.4R
CAPE HENRY BUOY  1012      55                N/A     5/ 8
CAPE CHARLES BUO 1026      56                N/A     5/ 8   5/ 8
OFFSHORE WE BUOY 1021      54                N/A     7/ 8   7/ 8
64NM E OF VA BCH 1050   49 51  290/ 10/ 12 1003.1R   7/ 8   7/ 8
DUCK PIER NC     1000   53 59  310/  7/  7 1003.1R
44100 DUCK FRF   1024      55                N/A     6/ 8
44056 DUCK FRF   1011      60                N/A     6/ 9
OREGON INLET NC  1000   52 60  360/  3/  4 1003.6R
HATTERAS NC      1000   56 66  200/  2/  3 1003.3R
DIAMOND SHLS NC  1050   58 76  300/  4/  6 1004.5R   4/ 8   3/ 8
CAPE LOOKOUT NC  1000   54     270/ 13/ 15 1003.8R
$$




USA.gov is the U.S. government's official web portal to all federal, state and local government web resources and services.